FDX51 KMEM-TJSJ

Flight info

Callsign FDX51
Flight time 3h 10m
Altitude 35000
Route BBKNG7 KERMI DCT VLKNN DCT OTK DCT OMN Y185 VENDS Y306 HAGIT Y290 BEANO BEANO3
Aircraft MD11/H-SDE1E2E3FGHIJ2J3J4J5M1RWXY/LB1D1

Departure

Time 2026-05-06 10:07
Airport Memphis International Airport (KMEM)

Arrival

Time 2026-05-06 13:18
Airport Luis Munoz Marin International Airport (TJSJ)
Time Latitude Longitude Altitude Speed Heading
2026-05-06 09:51 35.06085 -89.95690 338 ft 0 kts
2026-05-06 10:03 35.06068 -89.95691 339 ft 3 kts
2026-05-06 10:03 35.06050 -89.95695 333 ft 3 kts 41°
2026-05-06 10:03 35.06038 -89.95713 333 ft 3 kts 84°
2026-05-06 10:03 35.06038 -89.95718 333 ft 0 kts 90°
2026-05-06 10:05 35.06038 -89.95717 333 ft 2 kts 90°
2026-05-06 10:05 35.06030 -89.95645 335 ft 15 kts 96°
2026-05-06 10:06 35.05978 -89.95548 336 ft 14 kts 161°
2026-05-06 10:06 35.05859 -89.95560 333 ft 17 kts 208°
2026-05-06 10:06 35.05792 -89.95627 334 ft 5 kts 238°
2026-05-06 10:06 35.05783 -89.95665 336 ft 7 kts 258°
2026-05-06 10:07 35.05786 -89.95845 340 ft 56 kts 272°
2026-05-06 10:07 35.05810 -89.96674 333 ft 136 kts 272°
2026-05-06 10:07 35.05848 -89.98082 388 ft 187 kts 275°
2026-05-06 10:07 35.05831 -89.99631 1258 ft 175 kts 268°
2026-05-06 10:08 35.05579 -90.01074 2169 ft 175 kts 252°
2026-05-06 10:08 35.05003 -90.02316 3082 ft 165 kts 233°
2026-05-06 10:08 35.04117 -90.03198 3668 ft 180 kts 208°
2026-05-06 10:08 35.02733 -90.03369 3823 ft 225 kts 174°
2026-05-06 10:09 35.01215 -90.02473 4004 ft 261 kts 144°
2026-05-06 10:09 35.00083 -90.00598 4250 ft 290 kts 114°
2026-05-06 10:09 34.99735 -89.98147 4933 ft 300 kts 89°
2026-05-06 10:09 34.99941 -89.95580 5599 ft 308 kts 82°
2026-05-06 10:10 35.00264 -89.92966 6316 ft 314 kts 81°
2026-05-06 10:10 35.00601 -89.90343 7003 ft 319 kts 81°
2026-05-06 10:10 35.00913 -89.87645 7712 ft 323 kts 85°
2026-05-06 10:10 35.01053 -89.84889 8454 ft 326 kts 91°
2026-05-06 10:11 35.00995 -89.82111 9172 ft 330 kts 96°
2026-05-06 10:11 35.00784 -89.79306 9890 ft 333 kts 99°
2026-05-06 10:11 35.00466 -89.76436 10161 ft 354 kts 102°
2026-05-06 10:11 35.00051 -89.73371 10308 ft 378 kts 103°
2026-05-06 10:12 34.99570 -89.70152 10464 ft 400 kts 103°
2026-05-06 10:12 34.99043 -89.66786 11117 ft 406 kts 104°
2026-05-06 10:12 34.98499 -89.63384 11806 ft 410 kts 104°
2026-05-06 10:12 34.97940 -89.59941 12495 ft 415 kts 104°
2026-05-06 10:13 34.97372 -89.56467 13172 ft 420 kts 104°
2026-05-06 10:13 34.96793 -89.52947 13844 ft 425 kts 104°
2026-05-06 10:13 34.96207 -89.49393 14425 ft 430 kts 104°
2026-05-06 10:13 34.95612 -89.45793 15022 ft 435 kts 104°
2026-05-06 10:14 34.95017 -89.42195 15567 ft 440 kts 104°
2026-05-06 10:14 34.94408 -89.38523 16168 ft 444 kts 104°
2026-05-06 10:14 34.93791 -89.34804 16760 ft 448 kts 104°
2026-05-06 10:14 34.93168 -89.31057 17339 ft 453 kts 104°
2026-05-06 10:15 34.92544 -89.27313 17914 ft 457 kts 104°
2026-05-06 10:15 34.91904 -89.23486 18451 ft 461 kts 104°
2026-05-06 10:15 34.91242 -89.19649 18951 ft 464 kts 105°
2026-05-06 10:15 34.90555 -89.15780 19461 ft 468 kts 105°
2026-05-06 10:16 34.89871 -89.11879 19959 ft 472 kts 104°
2026-05-06 10:16 34.89195 -89.07946 20462 ft 475 kts 104°
2026-05-06 10:16 34.88523 -89.03980 20957 ft 479 kts 104°
2026-05-06 10:16 34.87858 -89.00029 21447 ft 482 kts 104°
2026-05-06 10:17 34.87180 -88.96006 21934 ft 486 kts 104°
2026-05-06 10:17 34.86497 -88.91956 22419 ft 489 kts 104°
2026-05-06 10:17 34.85807 -88.87878 22925 ft 492 kts 104°
2026-05-06 10:17 34.85110 -88.83774 23402 ft 496 kts 104°
2026-05-06 10:18 34.84409 -88.79654 23817 ft 498 kts 103°
2026-05-06 10:18 34.83700 -88.75502 24244 ft 501 kts 103°
2026-05-06 10:18 34.82996 -88.71386 24633 ft 504 kts 103°
2026-05-06 10:18 34.82279 -88.67202 25022 ft 506 kts 103°
2026-05-06 10:19 34.81555 -88.62986 25412 ft 509 kts 103°
2026-05-06 10:19 34.80826 -88.58754 25808 ft 512 kts 103°
2026-05-06 10:19 34.80092 -88.54496 26182 ft 515 kts 103°
2026-05-06 10:19 34.79351 -88.50215 26557 ft 517 kts 103°
2026-05-06 10:20 34.78606 -88.45913 26933 ft 520 kts 103°
2026-05-06 10:20 34.77863 -88.41637 27293 ft 523 kts 103°
2026-05-06 10:20 34.77106 -88.37289 27649 ft 525 kts 103°
2026-05-06 10:20 34.76344 -88.32922 28002 ft 528 kts 103°
2026-05-06 10:21 34.75577 -88.28532 28356 ft 531 kts 103°
2026-05-06 10:21 34.74804 -88.24129 28698 ft 534 kts 103°
2026-05-06 10:21 34.73893 -88.19738 28998 ft 535 kts 109°
2026-05-06 10:21 34.72470 -88.15560 29330 ft 534 kts 121°
2026-05-06 10:22 34.70442 -88.11803 29643 ft 530 kts 133°
2026-05-06 10:22 34.67926 -88.08512 29915 ft 529 kts 141°
2026-05-06 10:22 34.65230 -88.05536 30183 ft 531 kts 143°
2026-05-06 10:22 34.62443 -88.02566 30497 ft 533 kts 143°
2026-05-06 10:23 34.59679 -87.99545 30845 ft 534 kts 141°
2026-05-06 10:23 34.56962 -87.96454 31195 ft 536 kts 140°
2026-05-06 10:23 34.54274 -87.93295 31543 ft 537 kts 140°
2026-05-06 10:23 34.51612 -87.90106 31892 ft 538 kts 139°
2026-05-06 10:24 34.48951 -87.86893 32240 ft 539 kts 139°
2026-05-06 10:24 34.46290 -87.83677 32541 ft 540 kts 139°
2026-05-06 10:24 34.43624 -87.80462 32844 ft 541 kts 139°
2026-05-06 10:24 34.40937 -87.77233 33136 ft 542 kts 139°
2026-05-06 10:25 34.38281 -87.74050 33440 ft 543 kts 139°
2026-05-06 10:25 34.35582 -87.70822 33681 ft 545 kts 139°
2026-05-06 10:25 34.32879 -87.67594 33940 ft 547 kts 139°
2026-05-06 10:25 34.30157 -87.64346 34168 ft 548 kts 139°
2026-05-06 10:26 34.27436 -87.61102 34385 ft 549 kts 139°
2026-05-06 10:26 34.24698 -87.57841 34567 ft 551 kts 139°
2026-05-06 10:26 34.21994 -87.54624 34786 ft 552 kts 140°
2026-05-06 10:26 34.19240 -87.51350 34870 ft 556 kts 140°
2026-05-06 10:27 34.13684 -87.44754 34916 ft 559 kts 140°
2026-05-06 10:27 34.08120 -87.38180 34934 ft 559 kts 140°
2026-05-06 10:28 34.02505 -87.31573 34955 ft 568 kts 140°
2026-05-06 10:28 33.96819 -87.24873 34960 ft 575 kts 140°
2026-05-06 10:29 33.91126 -87.18161 34958 ft 575 kts 140°
2026-05-06 10:29 33.85401 -87.11426 34939 ft 576 kts 140°
2026-05-06 10:30 33.79653 -87.04683 34931 ft 578 kts 140°
2026-05-06 10:30 33.74808 -86.99009 34939 ft 579 kts 140°
2026-05-06 10:31 33.69059 -86.92289 34961 ft 581 kts 140°
2026-05-06 10:31 33.63411 -86.85302 34985 ft 584 kts 136°
2026-05-06 10:32 33.57938 -86.78039 34998 ft 585 kts 135°
2026-05-06 10:32 33.52523 -86.70803 34996 ft 586 kts 135°
2026-05-06 10:33 33.47040 -86.63552 34991 ft 586 kts 136°
2026-05-06 10:33 33.41566 -86.56360 34982 ft 586 kts 136°
2026-05-06 10:34 33.36054 -86.49138 34977 ft 587 kts 136°
2026-05-06 10:34 33.30537 -86.41919 34996 ft 587 kts 136°
2026-05-06 10:35 33.25009 -86.34698 35015 ft 588 kts 136°
2026-05-06 10:35 33.19508 -86.27526 35012 ft 588 kts 136°
2026-05-06 10:36 33.13978 -86.20330 35016 ft 588 kts 135°
2026-05-06 10:36 33.11210 -86.16734 34864 ft 583 kts 138°
2026-05-06 10:36 33.08468 -86.13185 34964 ft 579 kts 138°
2026-05-06 10:37 33.03013 -86.06151 34978 ft 577 kts 139°
2026-05-06 10:37 32.97592 -85.99159 34971 ft 577 kts 138°
2026-05-06 10:38 32.92142 -85.92127 34970 ft 577 kts 138°
2026-05-06 10:38 32.86692 -85.85103 34976 ft 577 kts 138°
2026-05-06 10:39 32.81222 -85.78069 34967 ft 577 kts 138°
2026-05-06 10:39 32.75789 -85.71097 34996 ft 577 kts 138°
2026-05-06 10:40 32.70312 -85.64083 35003 ft 578 kts 138°
2026-05-06 10:40 32.64836 -85.57084 35013 ft 578 kts 138°
2026-05-06 10:41 32.59379 -85.50123 35015 ft 578 kts 138°
2026-05-06 10:41 32.53879 -85.43126 35018 ft 578 kts 139°
2026-05-06 10:42 32.48406 -85.36207 35012 ft 578 kts 138°
2026-05-06 10:42 32.42907 -85.29250 35005 ft 578 kts 138°
2026-05-06 10:43 32.37414 -85.22295 34992 ft 578 kts 138°
2026-05-06 10:44 32.29164 -85.11874 34990 ft 578 kts 138°
2026-05-06 10:44 32.23691 -85.04979 34989 ft 578 kts 138°
2026-05-06 10:45 32.18186 -84.98056 34990 ft 577 kts 138°
2026-05-06 10:45 32.12673 -84.91137 34995 ft 577 kts 138°
2026-05-06 10:46 32.07186 -84.84264 35005 ft 577 kts 138°
2026-05-06 10:46 32.01680 -84.77379 35011 ft 577 kts 138°
2026-05-06 10:47 31.96186 -84.70532 35014 ft 577 kts 138°
2026-05-06 10:47 31.90641 -84.63659 35021 ft 577 kts 138°
2026-05-06 10:48 31.85121 -84.56810 35025 ft 577 kts 138°
2026-05-06 10:48 31.79594 -84.49951 35027 ft 576 kts 138°
2026-05-06 10:49 31.74109 -84.43153 35035 ft 576 kts 138°
2026-05-06 10:49 31.68585 -84.36323 35040 ft 576 kts 138°
2026-05-06 10:50 31.63089 -84.29541 35030 ft 576 kts 138°
2026-05-06 10:50 31.57558 -84.22727 35034 ft 576 kts 138°
2026-05-06 10:51 31.52021 -84.15920 35037 ft 576 kts 138°
2026-05-06 10:51 31.46479 -84.09118 35037 ft 576 kts 138°
2026-05-06 10:52 31.40961 -84.02360 35043 ft 577 kts 138°
2026-05-06 10:52 31.35395 -83.95583 35045 ft 577 kts 138°
2026-05-06 10:53 31.29819 -83.88800 35048 ft 577 kts 138°
2026-05-06 10:53 31.24286 -83.82062 35048 ft 578 kts 137°
2026-05-06 10:54 31.18699 -83.75265 35046 ft 578 kts 137°
2026-05-06 10:54 31.13111 -83.68480 35045 ft 578 kts 137°
2026-05-06 10:55 31.07551 -83.61743 35048 ft 579 kts 137°
2026-05-06 10:55 31.01957 -83.54977 35053 ft 579 kts 137°
2026-05-06 10:56 30.96353 -83.48211 35049 ft 579 kts 137°
2026-05-06 10:56 30.90752 -83.41461 35053 ft 579 kts 137°
2026-05-06 10:57 30.85179 -83.34757 35052 ft 579 kts 137°
2026-05-06 10:57 30.79564 -83.28032 35053 ft 579 kts 137°
2026-05-06 10:57 30.76736 -83.24662 35277 ft 586 kts 135°
2026-05-06 10:58 30.73870 -83.21243 35115 ft 590 kts 135°
2026-05-06 10:58 30.68235 -83.14274 35062 ft 591 kts 130°
2026-05-06 10:59 30.63144 -83.06792 35079 ft 590 kts 126°
2026-05-06 10:59 30.58223 -82.99126 35081 ft 590 kts 126°
2026-05-06 11:00 30.53277 -82.91532 35104 ft 590 kts 126°
2026-05-06 11:00 30.48304 -82.84020 35095 ft 590 kts 126°
2026-05-06 11:01 30.43289 -82.76484 35110 ft 590 kts 127°
2026-05-06 11:01 30.38281 -82.68964 35095 ft 589 kts 127°
2026-05-06 11:02 30.33291 -82.61479 35091 ft 589 kts 127°
2026-05-06 11:02 30.28276 -82.53969 35091 ft 589 kts 127°
2026-05-06 11:03 30.23260 -82.46471 35086 ft 588 kts 127°
2026-05-06 11:03 30.18227 -82.38969 35098 ft 588 kts 127°
2026-05-06 11:04 30.13187 -82.31504 35114 ft 588 kts 127°
2026-05-06 11:04 30.08184 -82.24089 35139 ft 587 kts 127°
2026-05-06 11:05 30.03150 -82.16623 35131 ft 587 kts 127°
2026-05-06 11:05 29.98122 -82.09175 35128 ft 587 kts 127°
2026-05-06 11:06 29.93124 -82.01788 35097 ft 587 kts 127°
2026-05-06 11:06 29.88096 -81.94370 35089 ft 586 kts 127°
2026-05-06 11:07 29.83087 -81.86995 35081 ft 586 kts 127°
2026-05-06 11:07 29.78049 -81.79590 35087 ft 586 kts 127°
2026-05-06 11:08 29.73012 -81.72201 35074 ft 586 kts 127°
2026-05-06 11:08 29.67975 -81.64826 35080 ft 585 kts 127°
2026-05-06 11:09 29.62955 -81.57522 35071 ft 585 kts 127°
2026-05-06 11:09 29.57894 -81.50161 35081 ft 585 kts 127°
2026-05-06 11:10 29.53702 -81.44058 35083 ft 584 kts 127°
2026-05-06 11:10 29.48660 -81.36724 35081 ft 583 kts 127°
2026-05-06 11:11 29.43658 -81.29461 35099 ft 583 kts 127°
2026-05-06 11:11 29.38621 -81.22161 35091 ft 582 kts 128°
2026-05-06 11:12 29.33490 -81.14958 35077 ft 582 kts 132°
2026-05-06 11:12 29.27838 -81.08409 35079 ft 581 kts 137°
2026-05-06 11:13 29.21949 -81.02062 35089 ft 580 kts 137°
2026-05-06 11:13 29.16090 -80.95682 35088 ft 580 kts 137°
2026-05-06 11:14 29.10311 -80.89300 35081 ft 579 kts 136°
2026-05-06 11:14 29.04518 -80.82888 35079 ft 579 kts 136°
2026-05-06 11:15 28.98720 -80.76486 35077 ft 578 kts 137°
2026-05-06 11:15 28.92968 -80.70153 35072 ft 577 kts 137°
2026-05-06 11:16 28.87172 -80.63784 35063 ft 577 kts 137°
2026-05-06 11:16 28.81529 -80.57263 35062 ft 576 kts 130°
2026-05-06 11:17 28.76643 -80.50077 35064 ft 576 kts 125°
2026-05-06 11:17 28.71979 -80.42649 35061 ft 575 kts 124°
2026-05-06 11:18 28.67429 -80.35142 35054 ft 575 kts 123°
2026-05-06 11:18 28.62967 -80.27554 35055 ft 574 kts 122°
2026-05-06 11:19 28.58535 -80.20038 35065 ft 574 kts 123°
2026-05-06 11:19 28.54057 -80.12497 35071 ft 574 kts 123°
2026-05-06 11:20 28.49571 -80.04972 35076 ft 574 kts 123°
2026-05-06 11:20 28.45119 -79.97514 35080 ft 573 kts 123°
2026-05-06 11:21 28.40635 -79.90015 35086 ft 573 kts 123°
2026-05-06 11:21 28.36150 -79.82527 35078 ft 572 kts 123°
2026-05-06 11:22 28.31668 -79.75056 35080 ft 572 kts 123°
2026-05-06 11:22 28.27212 -79.67642 35082 ft 571 kts 123°
2026-05-06 11:23 28.22716 -79.60189 35084 ft 571 kts 123°
2026-05-06 11:23 28.18215 -79.52764 35082 ft 570 kts 123°
2026-05-06 11:24 28.13714 -79.45327 35084 ft 570 kts 123°
2026-05-06 11:24 28.09259 -79.37967 35085 ft 569 kts 123°
2026-05-06 11:25 28.04766 -79.30553 35084 ft 569 kts 123°
2026-05-06 11:25 28.00283 -79.23170 35085 ft 568 kts 123°
2026-05-06 11:26 27.95798 -79.15798 35074 ft 568 kts 123°
2026-05-06 11:26 27.91332 -79.08483 35085 ft 567 kts 124°
2026-05-06 11:27 27.86839 -79.01145 35080 ft 567 kts 124°
2026-05-06 11:27 27.82351 -78.93812 35082 ft 565 kts 124°
2026-05-06 11:28 27.77904 -78.86551 35082 ft 565 kts 124°
2026-05-06 11:28 27.73426 -78.79251 35079 ft 564 kts 124°
2026-05-06 11:29 27.68952 -78.71971 35081 ft 563 kts 124°
2026-05-06 11:29 27.66716 -78.68338 34838 ft 561 kts 123°
2026-05-06 11:29 27.64532 -78.64778 35010 ft 554 kts 122°
2026-05-06 11:30 27.60270 -78.57568 35080 ft 550 kts 121°
2026-05-06 11:30 27.56093 -78.50338 35080 ft 550 kts 121°
2026-05-06 11:31 27.51940 -78.43159 35078 ft 550 kts 121°
2026-05-06 11:31 27.47745 -78.35947 35078 ft 550 kts 121°
2026-05-06 11:32 27.43538 -78.28735 35079 ft 550 kts 121°
2026-05-06 11:32 27.38947 -78.21831 35078 ft 551 kts 129°
2026-05-06 11:33 27.33884 -78.15393 35074 ft 552 kts 131°
2026-05-06 11:33 27.28743 -78.08979 35075 ft 552 kts 130°
2026-05-06 11:34 27.23647 -78.02514 35075 ft 552 kts 130°
2026-05-06 11:34 27.18575 -77.96029 35075 ft 552 kts 130°
2026-05-06 11:35 27.13536 -77.89590 35071 ft 552 kts 130°
2026-05-06 11:35 27.08443 -77.83099 35072 ft 552 kts 130°
2026-05-06 11:36 27.03356 -77.76628 35071 ft 552 kts 130°
2026-05-06 11:36 26.98266 -77.70165 35072 ft 552 kts 130°
2026-05-06 11:37 26.93201 -77.63742 35067 ft 552 kts 130°
2026-05-06 11:37 26.88099 -77.57280 35066 ft 552 kts 130°
2026-05-06 11:38 26.82984 -77.50835 35069 ft 552 kts 130°
2026-05-06 11:38 26.77900 -77.44437 35070 ft 552 kts 130°
2026-05-06 11:39 26.72788 -77.37997 35069 ft 552 kts 130°
2026-05-06 11:39 26.67679 -77.31563 35070 ft 552 kts 130°
2026-05-06 11:40 26.62571 -77.25142 35069 ft 552 kts 130°
2026-05-06 11:40 26.57493 -77.18767 35069 ft 552 kts 130°
2026-05-06 11:41 26.52379 -77.12358 35068 ft 552 kts 130°
2026-05-06 11:41 26.47262 -77.05954 35067 ft 552 kts 130°
2026-05-06 11:42 26.42135 -76.99547 35068 ft 552 kts 130°
2026-05-06 11:42 26.37048 -76.93199 35071 ft 552 kts 130°
2026-05-06 11:43 26.31919 -76.86808 35070 ft 552 kts 130°
2026-05-06 11:43 26.26781 -76.80440 35068 ft 552 kts 130°
2026-05-06 11:44 26.19105 -76.70925 35065 ft 552 kts 129°
2026-05-06 11:44 26.13968 -76.64555 35063 ft 552 kts 129°
2026-05-06 11:45 26.08828 -76.58190 35068 ft 552 kts 129°
2026-05-06 11:45 26.03725 -76.51881 35069 ft 551 kts 129°
2026-05-06 11:46 25.98574 -76.45522 35070 ft 551 kts 129°
2026-05-06 11:46 25.93431 -76.39181 35070 ft 552 kts 129°
2026-05-06 11:47 25.88285 -76.32846 35070 ft 552 kts 129°
2026-05-06 11:47 25.83136 -76.26516 35071 ft 552 kts 129°
2026-05-06 11:48 25.78017 -76.20232 35069 ft 552 kts 129°
2026-05-06 11:48 25.72843 -76.13904 35070 ft 552 kts 130°
2026-05-06 11:49 25.67701 -76.07633 35070 ft 552 kts 129°
2026-05-06 11:49 25.62536 -76.01324 35071 ft 552 kts 129°
2026-05-06 11:50 25.58241 -75.96081 35069 ft 552 kts 129°
2026-05-06 11:50 25.53067 -75.89770 35073 ft 552 kts 129°
2026-05-06 11:51 25.47895 -75.83472 35071 ft 552 kts 129°
2026-05-06 11:51 25.42707 -75.77164 35075 ft 552 kts 129°
2026-05-06 11:52 25.37561 -75.70915 35079 ft 552 kts 129°
2026-05-06 11:52 25.32366 -75.64615 35078 ft 553 kts 129°
2026-05-06 11:53 25.27212 -75.58374 35080 ft 553 kts 129°
2026-05-06 11:53 25.22017 -75.52092 35080 ft 552 kts 129°
2026-05-06 11:54 25.16817 -75.45826 35080 ft 553 kts 129°
2026-05-06 11:54 25.11608 -75.39566 35084 ft 553 kts 129°
2026-05-06 11:55 25.06426 -75.33332 35082 ft 553 kts 129°
2026-05-06 11:55 25.01214 -75.27063 35085 ft 553 kts 129°
2026-05-06 11:56 24.96004 -75.20803 35086 ft 554 kts 129°
2026-05-06 11:56 24.90816 -75.14580 35086 ft 554 kts 129°
2026-05-06 11:57 24.85595 -75.08326 35089 ft 554 kts 129°
2026-05-06 11:57 24.80374 -75.02081 35086 ft 554 kts 129°
2026-05-06 11:58 24.75153 -74.95843 35084 ft 554 kts 129°
2026-05-06 11:58 24.69919 -74.89600 35086 ft 554 kts 129°
2026-05-06 11:59 24.64719 -74.83404 35090 ft 554 kts 129°
2026-05-06 11:59 24.59475 -74.77183 35088 ft 553 kts 129°
2026-05-06 12:00 24.54235 -74.70975 35089 ft 553 kts 129°
2026-05-06 12:00 24.49002 -74.64769 35087 ft 553 kts 129°
2026-05-06 12:01 24.43794 -74.58597 35088 ft 552 kts 129°
2026-05-06 12:01 24.38566 -74.52408 35090 ft 552 kts 129°
2026-05-06 12:02 24.33338 -74.46228 35090 ft 552 kts 129°
2026-05-06 12:02 24.28111 -74.40058 35091 ft 551 kts 129°
2026-05-06 12:03 24.22882 -74.33894 35091 ft 552 kts 129°
2026-05-06 12:03 24.17642 -74.27724 35092 ft 552 kts 129°
2026-05-06 12:04 24.12436 -74.21602 35092 ft 551 kts 129°
2026-05-06 12:04 24.07203 -74.15458 35088 ft 551 kts 129°
2026-05-06 12:05 24.01964 -74.09333 35094 ft 551 kts 129°
2026-05-06 12:05 23.96750 -74.03241 35092 ft 550 kts 129°
2026-05-06 12:06 23.91512 -73.97117 35088 ft 550 kts 129°
2026-05-06 12:06 23.86268 -73.90989 35089 ft 550 kts 129°
2026-05-06 12:07 23.81040 -73.84888 35091 ft 550 kts 129°
2026-05-06 12:07 23.75811 -73.78794 35091 ft 550 kts 129°
2026-05-06 12:08 23.70606 -73.72736 35089 ft 549 kts 130°
2026-05-06 12:08 23.65373 -73.66653 35088 ft 549 kts 130°
2026-05-06 12:09 23.60134 -73.60571 35091 ft 549 kts 130°
2026-05-06 12:09 23.54901 -73.54503 35090 ft 548 kts 130°
2026-05-06 12:10 23.49668 -73.48444 35091 ft 548 kts 130°
2026-05-06 12:10 23.44452 -73.42433 35088 ft 548 kts 130°
2026-05-06 12:11 23.39212 -73.36393 35091 ft 548 kts 130°
2026-05-06 12:11 23.33999 -73.30381 35091 ft 548 kts 130°
2026-05-06 12:12 23.28764 -73.24347 35091 ft 547 kts 130°
2026-05-06 12:12 23.23536 -73.18330 35092 ft 547 kts 130°
2026-05-06 12:13 23.18294 -73.12304 35091 ft 547 kts 130°
2026-05-06 12:13 23.13085 -73.06323 35092 ft 547 kts 130°
2026-05-06 12:14 23.07842 -73.00311 35090 ft 547 kts 130°
2026-05-06 12:14 23.02610 -72.94319 35091 ft 546 kts 130°
2026-05-06 12:15 22.97426 -72.88256 35091 ft 545 kts 128°
2026-05-06 12:15 22.92645 -72.81940 35091 ft 543 kts 125°
2026-05-06 12:16 22.87963 -72.75485 35090 ft 543 kts 125°
2026-05-06 12:16 22.83268 -72.69060 35087 ft 543 kts 125°
2026-05-06 12:17 22.78572 -72.62699 35093 ft 543 kts 126°
2026-05-06 12:17 22.73839 -72.56308 35092 ft 542 kts 126°
2026-05-06 12:18 22.69111 -72.49933 35088 ft 542 kts 126°
2026-05-06 12:18 22.64413 -72.43601 35090 ft 541 kts 126°
2026-05-06 12:19 22.59689 -72.37241 35092 ft 541 kts 126°
2026-05-06 12:19 22.54960 -72.30883 35090 ft 541 kts 126°
2026-05-06 12:20 22.50235 -72.24538 35089 ft 540 kts 126°
2026-05-06 12:20 22.45513 -72.18211 35090 ft 540 kts 127°
2026-05-06 12:21 22.40822 -72.11950 35092 ft 539 kts 127°
2026-05-06 12:21 22.36108 -72.05653 35090 ft 539 kts 127°
2026-05-06 12:22 22.31384 -71.99342 35090 ft 538 kts 127°
2026-05-06 12:22 22.26675 -71.93054 35089 ft 538 kts 127°
2026-05-06 12:23 22.21992 -71.86810 35090 ft 537 kts 127°
2026-05-06 12:23 22.17280 -71.80535 35093 ft 537 kts 127°
2026-05-06 12:24 22.12573 -71.74275 35092 ft 536 kts 127°
2026-05-06 12:24 22.07867 -71.68023 35093 ft 536 kts 128°
2026-05-06 12:25 22.03194 -71.61821 35092 ft 536 kts 128°
2026-05-06 12:25 21.98473 -71.55564 35092 ft 535 kts 128°
2026-05-06 12:26 21.93796 -71.49375 35091 ft 535 kts 128°
2026-05-06 12:26 21.89068 -71.43145 35091 ft 535 kts 128°
2026-05-06 12:27 21.84348 -71.36924 35091 ft 535 kts 128°
2026-05-06 12:27 21.79664 -71.30747 35090 ft 535 kts 128°
2026-05-06 12:28 21.74948 -71.24532 35092 ft 535 kts 128°
2026-05-06 12:28 21.70237 -71.18331 35091 ft 534 kts 128°
2026-05-06 12:29 21.66314 -71.13173 35092 ft 534 kts 129°
2026-05-06 12:29 21.61598 -71.06978 35093 ft 534 kts 129°
2026-05-06 12:30 21.56914 -71.00833 35091 ft 534 kts 129°
2026-05-06 12:30 21.52205 -70.94662 35092 ft 533 kts 129°
2026-05-06 12:31 21.47603 -70.88390 35093 ft 533 kts 125°
2026-05-06 12:31 21.43413 -70.81868 35092 ft 532 kts 123°
2026-05-06 12:32 21.39305 -70.75261 35093 ft 532 kts 123°
2026-05-06 12:32 21.35165 -70.68671 35095 ft 532 kts 123°
2026-05-06 12:33 21.30999 -70.62101 35097 ft 531 kts 123°
2026-05-06 12:33 21.26826 -70.55542 35096 ft 531 kts 124°
2026-05-06 12:34 21.22686 -70.49039 35097 ft 531 kts 124°
2026-05-06 12:34 21.18522 -70.42502 35101 ft 530 kts 124°
2026-05-06 12:35 21.14361 -70.35978 35099 ft 529 kts 124°
2026-05-06 12:35 21.10203 -70.29464 35101 ft 529 kts 124°
2026-05-06 12:36 21.06042 -70.22956 35098 ft 528 kts 124°
2026-05-06 12:36 21.01920 -70.16519 35101 ft 527 kts 124°
2026-05-06 12:37 20.97754 -70.10042 35103 ft 527 kts 124°
2026-05-06 12:37 20.93599 -70.03579 35101 ft 526 kts 124°
2026-05-06 12:38 20.89479 -69.97165 35103 ft 526 kts 124°
2026-05-06 12:38 20.85332 -69.90714 35107 ft 525 kts 124°
2026-05-06 12:39 20.81192 -69.84282 35107 ft 524 kts 124°
2026-05-06 12:39 20.77055 -69.77862 35114 ft 523 kts 124°
2026-05-06 12:40 20.72943 -69.71488 35111 ft 523 kts 124°
2026-05-06 12:40 20.68813 -69.65093 35109 ft 522 kts 124°
2026-05-06 12:41 20.64680 -69.58700 35109 ft 522 kts 125°
2026-05-06 12:41 20.60552 -69.52325 35111 ft 521 kts 125°
2026-05-06 12:42 20.56446 -69.45987 35113 ft 521 kts 125°
2026-05-06 12:42 20.52314 -69.39636 35114 ft 520 kts 125°
2026-05-06 12:43 20.48178 -69.33287 35115 ft 520 kts 125°
2026-05-06 12:43 20.44050 -69.26944 35115 ft 519 kts 125°
2026-05-06 12:44 20.39959 -69.20658 35118 ft 518 kts 125°
2026-05-06 12:44 20.35839 -69.14334 35117 ft 518 kts 125°
2026-05-06 12:45 20.31720 -69.08019 35119 ft 517 kts 125°
2026-05-06 12:46 20.25573 -68.98608 35119 ft 517 kts 125°
2026-05-06 12:46 20.21463 -68.92325 35119 ft 516 kts 125°
2026-05-06 12:47 20.17352 -68.86046 35115 ft 516 kts 125°
2026-05-06 12:47 20.13263 -68.79809 35118 ft 516 kts 125°
2026-05-06 12:48 20.09149 -68.73536 35117 ft 516 kts 125°
2026-05-06 12:48 20.05127 -68.67210 35117 ft 515 kts 123°
2026-05-06 12:49 20.01188 -68.60835 35118 ft 515 kts 123°
2026-05-06 12:49 19.97280 -68.54495 35120 ft 515 kts 123°
2026-05-06 12:50 19.93339 -68.48126 35121 ft 514 kts 123°
2026-05-06 12:50 19.89418 -68.41806 35122 ft 514 kts 123°
2026-05-06 12:51 19.85470 -68.35450 35121 ft 514 kts 123°
2026-05-06 12:51 19.81525 -68.29107 35124 ft 514 kts 124°
2026-05-06 12:52 19.77575 -68.22760 35124 ft 514 kts 124°
2026-05-06 12:52 19.73651 -68.16462 35124 ft 514 kts 124°
2026-05-06 12:53 19.69708 -68.10141 35123 ft 512 kts 124°
2026-05-06 12:53 19.65765 -68.03826 35124 ft 512 kts 124°
2026-05-06 12:54 19.61822 -67.97522 35123 ft 512 kts 124°
2026-05-06 12:54 19.57897 -67.91273 35120 ft 510 kts 124°
2026-05-06 12:54 19.55933 -67.88143 34869 ft 506 kts 124°
2026-05-06 12:55 19.53982 -67.85034 34525 ft 503 kts 124°
2026-05-06 12:55 19.52042 -67.81941 34082 ft 503 kts 124°
2026-05-06 12:55 19.50097 -67.78840 33496 ft 504 kts 124°
2026-05-06 12:55 19.48178 -67.75783 32953 ft 504 kts 124°
2026-05-06 12:56 19.46231 -67.72685 32398 ft 505 kts 124°
2026-05-06 12:56 19.44280 -67.69580 31851 ft 505 kts 123°
2026-05-06 12:56 19.42330 -67.66477 31310 ft 506 kts 123°
2026-05-06 12:56 19.40372 -67.63364 30769 ft 507 kts 123°
2026-05-06 12:57 19.38412 -67.60247 30219 ft 507 kts 123°
2026-05-06 12:57 19.36450 -67.57129 29585 ft 508 kts 123°
2026-05-06 12:57 19.34491 -67.54017 29004 ft 508 kts 123°
2026-05-06 12:57 19.32556 -67.50945 28427 ft 505 kts 123°
2026-05-06 12:58 19.30612 -67.47861 27859 ft 499 kts 123°
2026-05-06 12:58 19.28689 -67.44811 27298 ft 495 kts 123°
2026-05-06 12:58 19.26786 -67.41791 26709 ft 490 kts 123°
2026-05-06 12:58 19.24908 -67.38805 26092 ft 484 kts 123°
2026-05-06 12:59 19.23049 -67.35846 25480 ft 479 kts 123°
2026-05-06 12:59 19.21213 -67.32924 24802 ft 474 kts 123°
2026-05-06 12:59 19.19394 -67.30029 24172 ft 469 kts 122°
2026-05-06 12:59 19.17599 -67.27173 23527 ft 464 kts 122°
2026-05-06 13:00 19.15818 -67.24341 22861 ft 459 kts 123°
2026-05-06 13:00 19.14082 -67.21581 22259 ft 455 kts 123°
2026-05-06 13:00 19.12331 -67.18798 21656 ft 450 kts 123°
2026-05-06 13:00 19.10600 -67.16048 21092 ft 446 kts 123°
2026-05-06 13:01 19.08886 -67.13328 20531 ft 442 kts 123°
2026-05-06 13:01 19.07183 -67.10625 19960 ft 439 kts 124°
2026-05-06 13:01 19.05520 -67.07987 19404 ft 435 kts 124°
2026-05-06 13:01 19.03845 -67.05331 18879 ft 431 kts 124°
2026-05-06 13:02 19.02189 -67.02707 18302 ft 427 kts 124°
2026-05-06 13:02 19.00544 -67.00102 17701 ft 423 kts 124°
2026-05-06 13:02 18.98912 -66.97519 17138 ft 419 kts 124°
2026-05-06 13:02 18.97301 -66.94971 16595 ft 415 kts 124°
2026-05-06 13:03 18.95702 -66.92441 16064 ft 411 kts 124°
2026-05-06 13:03 18.94134 -66.89963 15551 ft 407 kts 124°
2026-05-06 13:03 18.92566 -66.87484 15060 ft 403 kts 124°
2026-05-06 13:03 18.91017 -66.85036 14575 ft 399 kts 124°
2026-05-06 13:04 18.89480 -66.82610 14089 ft 395 kts 124°
2026-05-06 13:04 18.87958 -66.80208 13575 ft 391 kts 124°
2026-05-06 13:04 18.86452 -66.77831 13068 ft 386 kts 124°
2026-05-06 13:04 18.84983 -66.75514 12583 ft 383 kts 124°
2026-05-06 13:05 18.83506 -66.73185 12187 ft 379 kts 124°
2026-05-06 13:05 18.82039 -66.70874 11815 ft 377 kts 124°
2026-05-06 13:05 18.80576 -66.68579 11461 ft 375 kts 124°
2026-05-06 13:05 18.79120 -66.66310 11132 ft 372 kts 126°
2026-05-06 13:06 18.77578 -66.64124 11026 ft 370 kts 128°
2026-05-06 13:06 18.76021 -66.62049 11000 ft 349 kts 129°
2026-05-06 13:06 18.74548 -66.60128 10972 ft 324 kts 130°
2026-05-06 13:06 18.73174 -66.58344 10908 ft 303 kts 130°
2026-05-06 13:07 18.71876 -66.56659 10810 ft 292 kts 130°
2026-05-06 13:07 18.71026 -66.55555 10763 ft 292 kts 130°
2026-05-06 13:07 18.69743 -66.53887 10630 ft 291 kts 130°
2026-05-06 13:07 18.68050 -66.51684 10454 ft 292 kts 130°
2026-05-06 13:08 18.67204 -66.50582 10275 ft 291 kts 130°
2026-05-06 13:08 18.65911 -66.48898 9832 ft 291 kts 130°
2026-05-06 13:08 18.64663 -66.47271 9384 ft 287 kts 129°
2026-05-06 13:08 18.63413 -66.45641 8948 ft 283 kts 129°
2026-05-06 13:09 18.62179 -66.44032 8534 ft 280 kts 129°
2026-05-06 13:09 18.60960 -66.42442 8141 ft 278 kts 129°
2026-05-06 13:09 18.59745 -66.40859 7755 ft 275 kts 129°
2026-05-06 13:09 18.58561 -66.39317 7417 ft 272 kts 129°
2026-05-06 13:10 18.57369 -66.37764 7084 ft 271 kts 128°
2026-05-06 13:10 18.56184 -66.36220 6750 ft 270 kts 128°
2026-05-06 13:10 18.55006 -66.34687 6394 ft 268 kts 128°
2026-05-06 13:10 18.53837 -66.33165 6084 ft 264 kts 128°
2026-05-06 13:11 18.52691 -66.31674 6001 ft 263 kts 128°
2026-05-06 13:11 18.51531 -66.30182 5993 ft 264 kts 131°
2026-05-06 13:11 18.50185 -66.28864 5938 ft 266 kts 139°
2026-05-06 13:11 18.48712 -66.27631 5395 ft 272 kts 141°
2026-05-06 13:12 18.47202 -66.26418 4848 ft 274 kts 141°
2026-05-06 13:12 18.45686 -66.25208 4324 ft 272 kts 142°
2026-05-06 13:12 18.44179 -66.24006 3850 ft 271 kts 142°
2026-05-06 13:12 18.42691 -66.22820 3467 ft 265 kts 142°
2026-05-06 13:13 18.41240 -66.21663 3185 ft 256 kts 142°
2026-05-06 13:13 18.39864 -66.20566 3089 ft 239 kts 142°
2026-05-06 13:13 18.38701 -66.19453 2968 ft 215 kts 128°
2026-05-06 13:13 18.38045 -66.18139 2821 ft 195 kts 106°
2026-05-06 13:14 18.37997 -66.16750 2687 ft 192 kts 79°
2026-05-06 13:14 18.38394 -66.15418 2613 ft 189 kts 73°
2026-05-06 13:14 18.38802 -66.14177 2498 ft 173 kts 73°
2026-05-06 13:14 18.39227 -66.12993 2322 ft 175 kts 70°
2026-05-06 13:15 18.39715 -66.11789 2078 ft 176 kts 69°
2026-05-06 13:15 18.40190 -66.10633 1832 ft 169 kts 70°
2026-05-06 13:15 18.40635 -66.09540 1560 ft 160 kts 71°
2026-05-06 13:15 18.41063 -66.08479 1399 ft 159 kts 70°
2026-05-06 13:16 18.41490 -66.07415 1227 ft 158 kts 69°
2026-05-06 13:16 18.41918 -66.06345 979 ft 158 kts 69°
2026-05-06 13:16 18.42346 -66.05299 803 ft 157 kts 68°
2026-05-06 13:16 18.42770 -66.04260 624 ft 154 kts 68°
2026-05-06 13:17 18.43179 -66.03228 398 ft 154 kts 67°
2026-05-06 13:17 18.43590 -66.02205 167 ft 152 kts 67°
2026-05-06 13:17 18.44000 -66.01182 -25 ft 147 kts 68°
2026-05-06 13:17 18.44332 -66.00358 -44 ft 94 kts 67°
2026-05-06 13:18 18.44520 -65.99893 -39 ft 55 kts 67°
2026-05-06 13:18 18.44641 -65.99584 -46 ft 28 kts 71°
2026-05-06 13:18 18.44604 -65.99484 -43 ft 9 kts 164°
2026-05-06 13:18 18.44551 -65.99526 -38 ft 13 kts 242°
2026-05-06 13:19 18.44503 -65.99636 -38 ft 20 kts 248°
2026-05-06 13:19 18.44437 -65.99800 -46 ft 28 kts 246°
2026-05-06 13:19 18.44353 -66.00008 -39 ft 32 kts 248°
2026-05-06 13:19 18.44275 -66.00206 -42 ft 16 kts 245°
2026-05-06 13:20 18.44229 -66.00230 -25 ft 7 kts 172°
2026-05-06 13:20 18.44171 -66.00200 -21 ft 13 kts 153°
2026-05-06 13:20 18.44050 -66.00142 -22 ft 23 kts 156°
2026-05-06 13:20 18.43907 -66.00077 -21 ft 22 kts 157°
2026-05-06 13:21 18.43776 -66.00018 -22 ft 19 kts 157°
2026-05-06 13:21 18.43653 -65.99985 -20 ft 18 kts 162°
2026-05-06 13:21 18.43565 -65.99911 -18 ft 15 kts 103°
2026-05-06 13:21 18.43562 -65.99801 -16 ft 16 kts 90°
2026-05-06 13:22 18.43562 -65.99670 -16 ft 19 kts 90°
2026-05-06 13:22 18.43594 -65.99555 -19 ft 13 kts 34°
2026-05-06 13:22 18.43684 -65.99518 -21 ft 15 kts 12°
2026-05-06 13:22 18.43737 -65.99528 -20 ft 4 kts 308°
2026-05-06 13:23 18.43743 -65.99566 -17 ft 6 kts 271°
2026-05-06 13:23 18.43743 -65.99586 -16 ft 0 kts 270°